Regional Weather Roundup
Issued by NWS Goodland, KS

Home | Current Version | Previous Version | Graphics & Text | Print | Product List | Glossary On
Versions: 1 2 3 4 5 6 7 8 9 10 11 12 13 14 15 16 17 18 19 20 21 22 23 24 25 26 27 28 29 30 31 32 33 34 35 36 37 38 39 40 41 42 43 44 45 46 47 48 49 50
000
ASUS43 KGLD 230759
RWRGLD

GOODLAND FORECAST AREA HOURLY WEATHER ROUNDUP
NATIONAL WEATHER SERVICE GOODLAND KS
200 AM MDT WED JUL 23 2014

...OFFICIAL OBSERVATIONS...

CITY           SKY/WX    TMP DP  RH WIND       PRES   REMARKS
GOODLAND KS    CLEAR     70  68  93 E10       30.28F
HILL CITY KS   CLEAR     74  68  81 E8        30.21F
IMPERIAL NEB   MOCLDY    71  65  81 E9        30.28F
MCCOOK NEB     CLEAR     71  68  90 NE9       30.24F
AKRON CO       PTCLDY    68  61  78 SE13      30.32F
BURLINGTON CO  CLEAR     69  66  90 NE5       30.30S
LIMON CO       CLEAR     63  55  75 CALM      30.36S
$$

...UNOFFICIAL OBSERVATIONS...

CITY           SKY/WX    TMP DP  RH WIND       PRES   REMARKS
COLBY KS       CLEAR     73  70  88 E12       30.26F FOG
GOVE KS          N/A     76  32  20 MISG        N/A
LENORA KS        N/A     72  32  23 MISG        N/A
NORTON KS      CLEAR     72  66  83 CALM      30.22S
SHARON SPRINGS   N/A     70  65  83 CALM        N/A
WAKEENEY KS      N/A     74  67  78 MISG        N/A
KIT CARSON CO    N/A     71  58  63 CALM        N/A
YUMA CO          N/A     69  62  78 E10         N/A
$$



USA.gov is the U.S. government's official web portal to all federal, state and local government web resources and services.